Content
SEND FEEDBACK

Daily
Averages
Monthly
Summary
United States of America

ST. LOUIS, MISSOURI


Home > North America > United States > Missouri
Elevation: 163 meters     Latitude: 38 45N     Longitude: 090 22W

WEATHER
 
SELECT A DAY
Number of Records: 196,364;   Date Range: 1/1/95 - 7/26/14
 
SHARE

PRINT THIS DATA

[ ← Previous Day ]
WEATHER ALMANAC - 15 MAY, 2013
[ Next Day → ]
[ °F ]   °C
Weather ElementAverageHighLow
Temperature26.5 °C32.2 °C (2:54 pm)20.6 °C (4:54 am)
Dewpoint14.3 °C17.8 °C (11:54 pm)9.4 °C (1:54 am)
Humidity47.4 %71 % (11:54 pm)35 % (3:54 pm)
Barometer1010.8 hPa1012.9 hPa (6:54 am)1008.8 hPa (5:54 pm)
Wind Speed16.9 km/h29.6 km/h (8:54 am)
Wind Gust40.7 km/h (8:54 am)
Weather ElementAverage
Visibility16.1 km
Wind DirectionSW (230.4 °)

Weather ElementTotal
Precipitation---
Cooling Degree Days8.1 (Base 18.3)
Growing Degree Days16.4 (Base 10)
Averaged from 23 records on 15 May, 2013
WEATHER CONDITIONS BREAKOUT
WIND DIRECTION BREAKOUT
WEATHER BY HOUR - 15 MAY, 2013
[ °F ]   °C
Local TimeTemperatureDewpointHumidityBarometerVisibilityWind DirectionWind SpeedGust SpeedPrecipitationEventsConditions
1:54 AM24.4 °C9.4 °C38 %1010.8 hPa16.1 kmWSW (240°)25.9 km/h38.9 km/hClear
2:54 AM23.9 °C9.4 °C40 %1010.8 hPa16.1 kmWSW (240°)18.5 km/h37 km/hClear
3:54 AM22.8 °C10 °C44 %1011.2 hPa16.1 kmWSW (240°)20.4 km/hClear
4:54 AM20.6 °C11.1 °C54 %1012.2 hPa16.1 kmWSW (240°)11.1 km/hClear
5:54 AM20.6 °C11.1 °C54 %1012.5 hPa16.1 kmSW (230°)16.7 km/hClear
6:54 AM21.7 °C11.1 °C51 %1012.9 hPa16.1 kmSW (220°)22.2 km/hClear
7:54 AM22.8 °C11.7 °C49 %1012.9 hPa16.1 kmWSW (240°)16.7 km/hClear
8:54 AM23.9 °C12.2 °C48 %1012.5 hPa16.1 kmWSW (240°)29.6 km/h40.7 km/hScattered Clouds
9:54 AM25.6 °C13.9 °C48 %1012.5 hPa16.1 kmWSW (250°)24.1 km/h35.2 km/hScattered Clouds
10:54 AM27.8 °C15.6 °C47 %1012.5 hPa16.1 kmSW (220°)18.5 km/h31.5 km/hPartly Cloudy
11:54 AM30 °C16.1 °C43 %1011.9 hPa16.1 kmWest (260°)14.8 km/hPartly Cloudy
12:54 PM30.6 °C15.6 °C40 %1011.2 hPa16.1 kmSW (230°)18.5 km/hClear
1:54 PM31.1 °C16.7 °C42 %1010.5 hPa16.1 kmSW (220°)14.8 km/h27.8 km/hPartly Cloudy
2:54 PM32.2 °C16.7 °C39 %1010.2 hPa16.1 kmWest (260°)18.5 km/h25.9 km/hScattered Clouds
3:54 PM32.2 °C15 °C35 %1009.1 hPa16.1 kmWSW (250°)20.4 km/h29.6 km/hScattered Clouds
4:54 PM31.1 °C13.9 °C35 %1009.1 hPa16.1 kmSSW (200°)16.7 km/hMostly Cloudy
5:54 PM30 °C16.7 °C44 %1008.8 hPa16.1 kmSW (220°)11.1 km/hMostly Cloudy
6:54 PM28.3 °C16.7 °C49 %1008.8 hPa16.1 kmSW (220°)9.3 km/hOvercast
7:54 PM27.8 °C16.7 °C51 %1009.1 hPa16.1 kmSSW (210°)13 km/hMostly Cloudy
8:54 PM27.8 °C16.1 °C49 %1009.8 hPa16.1 kmSSW (210°)16.7 km/hOvercast
9:54 PM26.1 °C17.2 °C58 %1010.2 hPa16.1 kmSW (220°)11.1 km/hMostly Cloudy
10:54 PM25 °C17.2 °C62 %1009.8 hPa16.1 kmSSW (200°)11.1 km/hClear
11:54 PM23.3 °C17.8 °C71 %1010.8 hPa16.1 kmWSW (240°)7.4 km/hClear
Hourly data recorded from KSUS, located 0 kilometers away from St. Louis, Missouri







STORIES FROM OUR PARTNERS